Index of /20260430/WXO-DD/model_gdps/15km/00/051
Name Last modified Size Description
Parent Directory -
20260430T00Z_MSC_GDPS_AbsoluteVorticity_IsbL-0200_LatLon0.15_PT051H.grib2 2026-04-30 04:10 1.5M
20260430T00Z_MSC_GDPS_AbsoluteVorticity_IsbL-0250_LatLon0.15_PT051H.grib2 2026-04-30 04:10 1.3M
20260430T00Z_MSC_GDPS_AbsoluteVorticity_IsbL-0500_LatLon0.15_PT051H.grib2 2026-04-30 04:10 1.4M
20260430T00Z_MSC_GDPS_AbsoluteVorticity_IsbL-0700_LatLon0.15_PT051H.grib2 2026-04-30 04:10 1.3M
20260430T00Z_MSC_GDPS_AbsoluteVorticity_IsbL-0850_LatLon0.15_PT051H.grib2 2026-04-30 04:10 1.6M
20260430T00Z_MSC_GDPS_AirTemp_AGL-120m_LatLon0.15_PT051H.grib2 2026-04-30 04:10 904K
20260430T00Z_MSC_GDPS_AirTemp_AGL-2m_LatLon0.15_PT051H.grib2 2026-04-30 04:10 1.0M
20260430T00Z_MSC_GDPS_AirTemp_AGL-40m_LatLon0.15_PT051H.grib2 2026-04-30 04:10 809K
20260430T00Z_MSC_GDPS_AirTemp_AGL-80m_LatLon0.15_PT051H.grib2 2026-04-30 04:10 914K
20260430T00Z_MSC_GDPS_AirTemp_IsbL-0001_LatLon0.15_PT051H.grib2 2026-04-30 04:10 658K
20260430T00Z_MSC_GDPS_AirTemp_IsbL-0005_LatLon0.15_PT051H.grib2 2026-04-30 04:10 683K
20260430T00Z_MSC_GDPS_AirTemp_IsbL-0010_LatLon0.15_PT051H.grib2 2026-04-30 04:10 756K
20260430T00Z_MSC_GDPS_AirTemp_IsbL-0020_LatLon0.15_PT051H.grib2 2026-04-30 04:10 784K
20260430T00Z_MSC_GDPS_AirTemp_IsbL-0030_LatLon0.15_PT051H.grib2 2026-04-30 04:10 747K
20260430T00Z_MSC_GDPS_AirTemp_IsbL-0050_LatLon0.15_PT051H.grib2 2026-04-30 04:10 802K
20260430T00Z_MSC_GDPS_AirTemp_IsbL-0100_LatLon0.15_PT051H.grib2 2026-04-30 04:10 957K
20260430T00Z_MSC_GDPS_AirTemp_IsbL-0150_LatLon0.15_PT051H.grib2 2026-04-30 04:10 970K
20260430T00Z_MSC_GDPS_AirTemp_IsbL-0175_LatLon0.15_PT051H.grib2 2026-04-30 04:10 958K
20260430T00Z_MSC_GDPS_AirTemp_IsbL-0200_LatLon0.15_PT051H.grib2 2026-04-30 04:10 969K
20260430T00Z_MSC_GDPS_AirTemp_IsbL-0225_LatLon0.15_PT051H.grib2 2026-04-30 04:10 1.0M
20260430T00Z_MSC_GDPS_AirTemp_IsbL-0250_LatLon0.15_PT051H.grib2 2026-04-30 04:10 1.0M
20260430T00Z_MSC_GDPS_AirTemp_IsbL-0275_LatLon0.15_PT051H.grib2 2026-04-30 04:10 1.0M
20260430T00Z_MSC_GDPS_AirTemp_IsbL-0300_LatLon0.15_PT051H.grib2 2026-04-30 04:10 937K
20260430T00Z_MSC_GDPS_AirTemp_IsbL-0350_LatLon0.15_PT051H.grib2 2026-04-30 04:10 920K
20260430T00Z_MSC_GDPS_AirTemp_IsbL-0400_LatLon0.15_PT051H.grib2 2026-04-30 04:10 934K
20260430T00Z_MSC_GDPS_AirTemp_IsbL-0450_LatLon0.15_PT051H.grib2 2026-04-30 04:10 955K
20260430T00Z_MSC_GDPS_AirTemp_IsbL-0500_LatLon0.15_PT051H.grib2 2026-04-30 04:10 1.0M
20260430T00Z_MSC_GDPS_AirTemp_IsbL-0550_LatLon0.15_PT051H.grib2 2026-04-30 04:10 794K
20260430T00Z_MSC_GDPS_AirTemp_IsbL-0600_LatLon0.15_PT051H.grib2 2026-04-30 04:10 888K
20260430T00Z_MSC_GDPS_AirTemp_IsbL-0650_LatLon0.15_PT051H.grib2 2026-04-30 04:10 911K
20260430T00Z_MSC_GDPS_AirTemp_IsbL-0700_LatLon0.15_PT051H.grib2 2026-04-30 04:10 946K
20260430T00Z_MSC_GDPS_AirTemp_IsbL-0750_LatLon0.15_PT051H.grib2 2026-04-30 04:10 1.0M
20260430T00Z_MSC_GDPS_AirTemp_IsbL-0800_LatLon0.15_PT051H.grib2 2026-04-30 04:10 1.1M
20260430T00Z_MSC_GDPS_AirTemp_IsbL-0850_LatLon0.15_PT051H.grib2 2026-04-30 04:10 1.1M
20260430T00Z_MSC_GDPS_AirTemp_IsbL-0875_LatLon0.15_PT051H.grib2 2026-04-30 04:10 1.1M
20260430T00Z_MSC_GDPS_AirTemp_IsbL-0900_LatLon0.15_PT051H.grib2 2026-04-30 04:10 1.1M
20260430T00Z_MSC_GDPS_AirTemp_IsbL-0925_LatLon0.15_PT051H.grib2 2026-04-30 04:10 1.1M
20260430T00Z_MSC_GDPS_AirTemp_IsbL-0950_LatLon0.15_PT051H.grib2 2026-04-30 04:10 1.1M
20260430T00Z_MSC_GDPS_AirTemp_IsbL-0970_LatLon0.15_PT051H.grib2 2026-04-30 04:10 1.2M
20260430T00Z_MSC_GDPS_AirTemp_IsbL-0985_LatLon0.15_PT051H.grib2 2026-04-30 04:10 1.1M
20260430T00Z_MSC_GDPS_AirTemp_IsbL-1000_LatLon0.15_PT051H.grib2 2026-04-30 04:10 1.1M
20260430T00Z_MSC_GDPS_AirTemp_IsbL-1015_LatLon0.15_PT051H.grib2 2026-04-30 04:10 1.1M
20260430T00Z_MSC_GDPS_Albedo_Sfc_LatLon0.15_PT051H.grib2 2026-04-30 04:10 242K
20260430T00Z_MSC_GDPS_CAPE_Sfc_LatLon0.15_PT051H.grib2 2026-04-30 04:10 4.0M
20260430T00Z_MSC_GDPS_CIN_Sfc_LatLon0.15_PT051H.grib2 2026-04-30 04:10 2.8M
20260430T00Z_MSC_GDPS_CloudWater_EAtm_LatLon0.15_PT051H.grib2 2026-04-30 04:10 530K
20260430T00Z_MSC_GDPS_ConvectivePrecip-Accum_Sfc_LatLon0.15_PT051H.grib2 2026-04-30 04:10 2.9M
20260430T00Z_MSC_GDPS_DewPointDepression_AGL-2m_LatLon0.15_PT051H.grib2 2026-04-30 04:10 762K
20260430T00Z_MSC_GDPS_DewPointDepression_IsbL-0010_LatLon0.15_PT051H.grib2 2026-04-30 04:10 60K
20260430T00Z_MSC_GDPS_DewPointDepression_IsbL-0020_LatLon0.15_PT051H.grib2 2026-04-30 04:10 63K
20260430T00Z_MSC_GDPS_DewPointDepression_IsbL-0030_LatLon0.15_PT051H.grib2 2026-04-30 04:10 73K
20260430T00Z_MSC_GDPS_DewPointDepression_IsbL-0050_LatLon0.15_PT051H.grib2 2026-04-30 04:10 372K
20260430T00Z_MSC_GDPS_DewPointDepression_IsbL-0100_LatLon0.15_PT051H.grib2 2026-04-30 04:10 414K
20260430T00Z_MSC_GDPS_DewPointDepression_IsbL-0150_LatLon0.15_PT051H.grib2 2026-04-30 04:10 466K
20260430T00Z_MSC_GDPS_DewPointDepression_IsbL-0175_LatLon0.15_PT051H.grib2 2026-04-30 04:10 574K
20260430T00Z_MSC_GDPS_DewPointDepression_IsbL-0200_LatLon0.15_PT051H.grib2 2026-04-30 04:10 685K
20260430T00Z_MSC_GDPS_DewPointDepression_IsbL-0225_LatLon0.15_PT051H.grib2 2026-04-30 04:10 779K
20260430T00Z_MSC_GDPS_DewPointDepression_IsbL-0250_LatLon0.15_PT051H.grib2 2026-04-30 04:10 862K
20260430T00Z_MSC_GDPS_DewPointDepression_IsbL-0275_LatLon0.15_PT051H.grib2 2026-04-30 04:10 878K
20260430T00Z_MSC_GDPS_DewPointDepression_IsbL-0300_LatLon0.15_PT051H.grib2 2026-04-30 04:10 917K
20260430T00Z_MSC_GDPS_DewPointDepression_IsbL-0350_LatLon0.15_PT051H.grib2 2026-04-30 04:10 944K
20260430T00Z_MSC_GDPS_DewPointDepression_IsbL-0400_LatLon0.15_PT051H.grib2 2026-04-30 04:10 1.0M
20260430T00Z_MSC_GDPS_DewPointDepression_IsbL-0450_LatLon0.15_PT051H.grib2 2026-04-30 04:10 1.0M
20260430T00Z_MSC_GDPS_DewPointDepression_IsbL-0500_LatLon0.15_PT051H.grib2 2026-04-30 04:10 1.0M
20260430T00Z_MSC_GDPS_DewPointDepression_IsbL-0550_LatLon0.15_PT051H.grib2 2026-04-30 04:10 1.0M
20260430T00Z_MSC_GDPS_DewPointDepression_IsbL-0600_LatLon0.15_PT051H.grib2 2026-04-30 04:10 1.0M
20260430T00Z_MSC_GDPS_DewPointDepression_IsbL-0650_LatLon0.15_PT051H.grib2 2026-04-30 04:10 1.1M
20260430T00Z_MSC_GDPS_DewPointDepression_IsbL-0700_LatLon0.15_PT051H.grib2 2026-04-30 04:10 1.1M
20260430T00Z_MSC_GDPS_DewPointDepression_IsbL-0750_LatLon0.15_PT051H.grib2 2026-04-30 04:10 1.1M
20260430T00Z_MSC_GDPS_DewPointDepression_IsbL-0800_LatLon0.15_PT051H.grib2 2026-04-30 04:10 1.2M
20260430T00Z_MSC_GDPS_DewPointDepression_IsbL-0850_LatLon0.15_PT051H.grib2 2026-04-30 04:10 1.2M
20260430T00Z_MSC_GDPS_DewPointDepression_IsbL-0875_LatLon0.15_PT051H.grib2 2026-04-30 04:10 1.1M
20260430T00Z_MSC_GDPS_DewPointDepression_IsbL-0900_LatLon0.15_PT051H.grib2 2026-04-30 04:10 1.0M
20260430T00Z_MSC_GDPS_DewPointDepression_IsbL-0925_LatLon0.15_PT051H.grib2 2026-04-30 04:10 1.0M
20260430T00Z_MSC_GDPS_DewPointDepression_IsbL-0950_LatLon0.15_PT051H.grib2 2026-04-30 04:10 1.0M
20260430T00Z_MSC_GDPS_DewPointDepression_IsbL-0970_LatLon0.15_PT051H.grib2 2026-04-30 04:10 1.0M
20260430T00Z_MSC_GDPS_DewPointDepression_IsbL-0985_LatLon0.15_PT051H.grib2 2026-04-30 04:10 1.0M
20260430T00Z_MSC_GDPS_DewPointDepression_IsbL-1000_LatLon0.15_PT051H.grib2 2026-04-30 04:10 973K
20260430T00Z_MSC_GDPS_DewPointDepression_IsbL-1015_LatLon0.15_PT051H.grib2 2026-04-30 04:10 913K
20260430T00Z_MSC_GDPS_DewPoint_AGL-2m_LatLon0.15_PT051H.grib2 2026-04-30 04:10 602K
20260430T00Z_MSC_GDPS_DownwardLongwaveRadiationFlux-Accum_Sfc_LatLon0.15_PT051H.grib2 2026-04-30 04:10 836K
20260430T00Z_MSC_GDPS_DownwardShortwaveRadiationFlux-Accum_NTAtm_LatLon0.15_PT051H.grib2 2026-04-30 04:10 278K
20260430T00Z_MSC_GDPS_DownwardShortwaveRadiationFlux-Accum_Sfc_LatLon0.15_PT051H.grib2 2026-04-30 04:10 1.0M
20260430T00Z_MSC_GDPS_FreezingRain-Accum1h_Sfc_LatLon0.15_PT051H.grib2 2026-04-30 04:10 37K
20260430T00Z_MSC_GDPS_FreezingRain-Accum3h_Sfc_LatLon0.15_PT051H.grib2 2026-04-30 04:10 47K
20260430T00Z_MSC_GDPS_FreezingRain-Accum_Sfc_LatLon0.15_PT051H.grib2 2026-04-30 04:10 272K
20260430T00Z_MSC_GDPS_GeopotentialHeight_IsbL-0001_LatLon0.15_PT051H.grib2 2026-04-30 04:10 364K
20260430T00Z_MSC_GDPS_GeopotentialHeight_IsbL-0005_LatLon0.15_PT051H.grib2 2026-04-30 04:10 479K
20260430T00Z_MSC_GDPS_GeopotentialHeight_IsbL-0010_LatLon0.15_PT051H.grib2 2026-04-30 04:10 472K
20260430T00Z_MSC_GDPS_GeopotentialHeight_IsbL-0020_LatLon0.15_PT051H.grib2 2026-04-30 04:10 409K
20260430T00Z_MSC_GDPS_GeopotentialHeight_IsbL-0030_LatLon0.15_PT051H.grib2 2026-04-30 04:10 565K
20260430T00Z_MSC_GDPS_GeopotentialHeight_IsbL-0050_LatLon0.15_PT051H.grib2 2026-04-30 04:10 568K
20260430T00Z_MSC_GDPS_GeopotentialHeight_IsbL-0100_LatLon0.15_PT051H.grib2 2026-04-30 04:10 608K
20260430T00Z_MSC_GDPS_GeopotentialHeight_IsbL-0150_LatLon0.15_PT051H.grib2 2026-04-30 04:10 628K
20260430T00Z_MSC_GDPS_GeopotentialHeight_IsbL-0175_LatLon0.15_PT051H.grib2 2026-04-30 04:10 631K
20260430T00Z_MSC_GDPS_GeopotentialHeight_IsbL-0200_LatLon0.15_PT051H.grib2 2026-04-30 04:10 635K
20260430T00Z_MSC_GDPS_GeopotentialHeight_IsbL-0225_LatLon0.15_PT051H.grib2 2026-04-30 04:10 632K
20260430T00Z_MSC_GDPS_GeopotentialHeight_IsbL-0250_LatLon0.15_PT051H.grib2 2026-04-30 04:10 639K
20260430T00Z_MSC_GDPS_GeopotentialHeight_IsbL-0275_LatLon0.15_PT051H.grib2 2026-04-30 04:10 637K
20260430T00Z_MSC_GDPS_GeopotentialHeight_IsbL-0300_LatLon0.15_PT051H.grib2 2026-04-30 04:10 630K
20260430T00Z_MSC_GDPS_GeopotentialHeight_IsbL-0350_LatLon0.15_PT051H.grib2 2026-04-30 04:10 628K
20260430T00Z_MSC_GDPS_GeopotentialHeight_IsbL-0400_LatLon0.15_PT051H.grib2 2026-04-30 04:10 619K
20260430T00Z_MSC_GDPS_GeopotentialHeight_IsbL-0450_LatLon0.15_PT051H.grib2 2026-04-30 04:10 610K
20260430T00Z_MSC_GDPS_GeopotentialHeight_IsbL-0500_LatLon0.15_PT051H.grib2 2026-04-30 04:10 533K
20260430T00Z_MSC_GDPS_GeopotentialHeight_IsbL-0550_LatLon0.15_PT051H.grib2 2026-04-30 04:10 526K
20260430T00Z_MSC_GDPS_GeopotentialHeight_IsbL-0600_LatLon0.15_PT051H.grib2 2026-04-30 04:10 520K
20260430T00Z_MSC_GDPS_GeopotentialHeight_IsbL-0650_LatLon0.15_PT051H.grib2 2026-04-30 04:10 684K
20260430T00Z_MSC_GDPS_GeopotentialHeight_IsbL-0700_LatLon0.15_PT051H.grib2 2026-04-30 04:10 685K
20260430T00Z_MSC_GDPS_GeopotentialHeight_IsbL-0750_LatLon0.15_PT051H.grib2 2026-04-30 04:10 686K
20260430T00Z_MSC_GDPS_GeopotentialHeight_IsbL-0800_LatLon0.15_PT051H.grib2 2026-04-30 04:10 695K
20260430T00Z_MSC_GDPS_GeopotentialHeight_IsbL-0850_LatLon0.15_PT051H.grib2 2026-04-30 04:10 711K
20260430T00Z_MSC_GDPS_GeopotentialHeight_IsbL-0875_LatLon0.15_PT051H.grib2 2026-04-30 04:10 717K
20260430T00Z_MSC_GDPS_GeopotentialHeight_IsbL-0900_LatLon0.15_PT051H.grib2 2026-04-30 04:10 725K
20260430T00Z_MSC_GDPS_GeopotentialHeight_IsbL-0925_LatLon0.15_PT051H.grib2 2026-04-30 04:10 731K
20260430T00Z_MSC_GDPS_GeopotentialHeight_IsbL-0950_LatLon0.15_PT051H.grib2 2026-04-30 04:10 739K
20260430T00Z_MSC_GDPS_GeopotentialHeight_IsbL-0970_LatLon0.15_PT051H.grib2 2026-04-30 04:10 751K
20260430T00Z_MSC_GDPS_GeopotentialHeight_IsbL-0985_LatLon0.15_PT051H.grib2 2026-04-30 04:10 766K
20260430T00Z_MSC_GDPS_GeopotentialHeight_IsbL-1000_LatLon0.15_PT051H.grib2 2026-04-30 04:10 787K
20260430T00Z_MSC_GDPS_GeopotentialHeight_IsbL-1015_LatLon0.15_PT051H.grib2 2026-04-30 04:10 807K
20260430T00Z_MSC_GDPS_Humidex_Sfc_LatLon0.15_PT051H.grib2 2026-04-30 04:10 5.3M
20260430T00Z_MSC_GDPS_IcePellets-Accum1h_Sfc_LatLon0.15_PT051H.grib2 2026-04-30 04:10 8.2K
20260430T00Z_MSC_GDPS_IcePellets-Accum3h_Sfc_LatLon0.15_PT051H.grib2 2026-04-30 04:10 11K
20260430T00Z_MSC_GDPS_IcePellets-Accum_Sfc_LatLon0.15_PT051H.grib2 2026-04-30 04:10 60K
20260430T00Z_MSC_GDPS_KIndex_Sfc_LatLon0.15_PT051H.grib2 2026-04-30 04:10 6.5M
20260430T00Z_MSC_GDPS_LatentHeatNetFlux_Sfc_LatLon0.15_PT051H.grib2 2026-04-30 04:10 673K
20260430T00Z_MSC_GDPS_LiftedIndex-MU-VT_IsbL-0500_LatLon0.15_PT051H.grib2 2026-04-30 04:10 5.4M
20260430T00Z_MSC_GDPS_NetLongwaveRadiationFlux-Accum_Sfc_LatLon0.15_PT051H.grib2 2026-04-30 04:10 1.1M
20260430T00Z_MSC_GDPS_NetShortwaveRadiationFlux-Accum_Sfc_LatLon0.15_PT051H.grib2 2026-04-30 04:10 1.0M
20260430T00Z_MSC_GDPS_O3MixingRatio_Sfc_LatLon0.15_PT051H.grib2 2026-04-30 04:50 2.0M
20260430T00Z_MSC_GDPS_O3_EAtm_LatLon0.15_PT051H.grib2 2026-04-30 04:50 2.5M
20260430T00Z_MSC_GDPS_PlanetaryBoundaryLayerHeight_Sfc_LatLon0.15_PT051H.grib2 2026-04-30 04:10 2.4M
20260430T00Z_MSC_GDPS_Precip-Accum1h_Sfc_LatLon0.15_PT051H.grib2 2026-04-30 04:10 3.2M
20260430T00Z_MSC_GDPS_Precip-Accum3h_Sfc_LatLon0.15_PT051H.grib2 2026-04-30 04:10 3.4M
20260430T00Z_MSC_GDPS_Precip-Accum_Sfc_LatLon0.15_PT051H.grib2 2026-04-30 04:10 4.9M
20260430T00Z_MSC_GDPS_PrecipRate_Sfc_LatLon0.15_PT051H.grib2 2026-04-30 04:10 2.9M
20260430T00Z_MSC_GDPS_PrecipType-Instant_Sfc_LatLon0.15_PT051H.grib2 2026-04-30 04:10 1.5M
20260430T00Z_MSC_GDPS_Pressure_MSL_LatLon0.15_PT051H.grib2 2026-04-30 04:10 822K
20260430T00Z_MSC_GDPS_Pressure_PVU-1.5_LatLon0.15_PT051H.grib2 2026-04-30 04:10 5.8M
20260430T00Z_MSC_GDPS_Pressure_PVU-1_LatLon0.15_PT051H.grib2 2026-04-30 04:10 6.0M
20260430T00Z_MSC_GDPS_Pressure_PVU-2_LatLon0.15_PT051H.grib2 2026-04-30 04:10 5.6M
20260430T00Z_MSC_GDPS_Pressure_Sfc_LatLon0.15_PT051H.grib2 2026-04-30 04:10 1.1M
20260430T00Z_MSC_GDPS_RadiativeTemp_Sfc_LatLon0.15_PT051H.grib2 2026-04-30 04:10 662K
20260430T00Z_MSC_GDPS_Rain-Accum1h_Sfc_LatLon0.15_PT051H.grib2 2026-04-30 04:10 1.6M
20260430T00Z_MSC_GDPS_Rain-Accum3h_Sfc_LatLon0.15_PT051H.grib2 2026-04-30 04:10 1.8M
20260430T00Z_MSC_GDPS_Rain-Accum_Sfc_LatLon0.15_PT051H.grib2 2026-04-30 04:10 3.7M
20260430T00Z_MSC_GDPS_RelativeHumidity_AGL-2m_LatLon0.15_PT051H.grib2 2026-04-30 04:10 1.1M
20260430T00Z_MSC_GDPS_RelativeHumidity_IsbL-0010_LatLon0.15_PT051H.grib2 2026-04-30 04:10 197K
20260430T00Z_MSC_GDPS_RelativeHumidity_IsbL-0020_LatLon0.15_PT051H.grib2 2026-04-30 04:10 273K
20260430T00Z_MSC_GDPS_RelativeHumidity_IsbL-0030_LatLon0.15_PT051H.grib2 2026-04-30 04:10 268K
20260430T00Z_MSC_GDPS_RelativeHumidity_IsbL-0050_LatLon0.15_PT051H.grib2 2026-04-30 04:10 416K
20260430T00Z_MSC_GDPS_RelativeHumidity_IsbL-0100_LatLon0.15_PT051H.grib2 2026-04-30 04:10 509K
20260430T00Z_MSC_GDPS_RelativeHumidity_IsbL-0150_LatLon0.15_PT051H.grib2 2026-04-30 04:10 660K
20260430T00Z_MSC_GDPS_RelativeHumidity_IsbL-0175_LatLon0.15_PT051H.grib2 2026-04-30 04:10 779K
20260430T00Z_MSC_GDPS_RelativeHumidity_IsbL-0200_LatLon0.15_PT051H.grib2 2026-04-30 04:10 699K
20260430T00Z_MSC_GDPS_RelativeHumidity_IsbL-0225_LatLon0.15_PT051H.grib2 2026-04-30 04:10 787K
20260430T00Z_MSC_GDPS_RelativeHumidity_IsbL-0250_LatLon0.15_PT051H.grib2 2026-04-30 04:10 862K
20260430T00Z_MSC_GDPS_RelativeHumidity_IsbL-0275_LatLon0.15_PT051H.grib2 2026-04-30 04:10 881K
20260430T00Z_MSC_GDPS_RelativeHumidity_IsbL-0300_LatLon0.15_PT051H.grib2 2026-04-30 04:10 922K
20260430T00Z_MSC_GDPS_RelativeHumidity_IsbL-0350_LatLon0.15_PT051H.grib2 2026-04-30 04:10 943K
20260430T00Z_MSC_GDPS_RelativeHumidity_IsbL-0400_LatLon0.15_PT051H.grib2 2026-04-30 04:10 966K
20260430T00Z_MSC_GDPS_RelativeHumidity_IsbL-0450_LatLon0.15_PT051H.grib2 2026-04-30 04:10 1.0M
20260430T00Z_MSC_GDPS_RelativeHumidity_IsbL-0500_LatLon0.15_PT051H.grib2 2026-04-30 04:10 1.0M
20260430T00Z_MSC_GDPS_RelativeHumidity_IsbL-0550_LatLon0.15_PT051H.grib2 2026-04-30 04:10 1.1M
20260430T00Z_MSC_GDPS_RelativeHumidity_IsbL-0600_LatLon0.15_PT051H.grib2 2026-04-30 04:10 1.1M
20260430T00Z_MSC_GDPS_RelativeHumidity_IsbL-0650_LatLon0.15_PT051H.grib2 2026-04-30 04:10 1.1M
20260430T00Z_MSC_GDPS_RelativeHumidity_IsbL-0700_LatLon0.15_PT051H.grib2 2026-04-30 04:10 1.1M
20260430T00Z_MSC_GDPS_RelativeHumidity_IsbL-0750_LatLon0.15_PT051H.grib2 2026-04-30 04:10 1.2M
20260430T00Z_MSC_GDPS_RelativeHumidity_IsbL-0800_LatLon0.15_PT051H.grib2 2026-04-30 04:10 1.3M
20260430T00Z_MSC_GDPS_RelativeHumidity_IsbL-0850_LatLon0.15_PT051H.grib2 2026-04-30 04:10 1.3M
20260430T00Z_MSC_GDPS_RelativeHumidity_IsbL-0875_LatLon0.15_PT051H.grib2 2026-04-30 04:10 1.3M
20260430T00Z_MSC_GDPS_RelativeHumidity_IsbL-0900_LatLon0.15_PT051H.grib2 2026-04-30 04:10 1.3M
20260430T00Z_MSC_GDPS_RelativeHumidity_IsbL-0925_LatLon0.15_PT051H.grib2 2026-04-30 04:10 1.2M
20260430T00Z_MSC_GDPS_RelativeHumidity_IsbL-0950_LatLon0.15_PT051H.grib2 2026-04-30 04:10 1.2M
20260430T00Z_MSC_GDPS_RelativeHumidity_IsbL-0970_LatLon0.15_PT051H.grib2 2026-04-30 04:10 1.2M
20260430T00Z_MSC_GDPS_RelativeHumidity_IsbL-0985_LatLon0.15_PT051H.grib2 2026-04-30 04:10 1.1M
20260430T00Z_MSC_GDPS_RelativeHumidity_IsbL-1000_LatLon0.15_PT051H.grib2 2026-04-30 04:10 1.1M
20260430T00Z_MSC_GDPS_RelativeHumidity_IsbL-1015_LatLon0.15_PT051H.grib2 2026-04-30 04:10 1.0M
20260430T00Z_MSC_GDPS_RelativeVorticity_IsbL-0200_LatLon0.15_PT051H.grib2 2026-04-30 04:10 1.5M
20260430T00Z_MSC_GDPS_RelativeVorticity_IsbL-0250_LatLon0.15_PT051H.grib2 2026-04-30 04:10 1.3M
20260430T00Z_MSC_GDPS_RelativeVorticity_IsbL-0500_LatLon0.15_PT051H.grib2 2026-04-30 04:10 1.4M
20260430T00Z_MSC_GDPS_RelativeVorticity_IsbL-0700_LatLon0.15_PT051H.grib2 2026-04-30 04:10 1.6M
20260430T00Z_MSC_GDPS_RelativeVorticity_IsbL-0850_LatLon0.15_PT051H.grib2 2026-04-30 04:10 1.6M
20260430T00Z_MSC_GDPS_Runoff-Accum_Sfc_LatLon0.15_PT051H.grib2 2026-04-30 04:10 129K
20260430T00Z_MSC_GDPS_SensibleHeatNetFlux_Sfc_LatLon0.15_PT051H.grib2 2026-04-30 04:10 624K
20260430T00Z_MSC_GDPS_ShowalterIndex_IsbL-0500_LatLon0.15_PT051H.grib2 2026-04-30 04:10 6.2M
20260430T00Z_MSC_GDPS_Snow-Accum1h_Sfc_LatLon0.15_PT051H.grib2 2026-04-30 04:10 942K
20260430T00Z_MSC_GDPS_Snow-Accum3h_Sfc_LatLon0.15_PT051H.grib2 2026-04-30 04:10 1.0M
20260430T00Z_MSC_GDPS_Snow-Accum_Sfc_LatLon0.15_PT051H.grib2 2026-04-30 04:10 1.9M
20260430T00Z_MSC_GDPS_SnowDensity_Sfc_LatLon0.15_PT051H.grib2 2026-04-30 04:10 264K
20260430T00Z_MSC_GDPS_SnowDepth_Sfc_LatLon0.15_PT051H.grib2 2026-04-30 04:10 1.7M
20260430T00Z_MSC_GDPS_SoilTemp_DBS-0to10cm_LatLon0.15_PT051H.grib2 2026-04-30 04:10 503K
20260430T00Z_MSC_GDPS_SoilTemp_Sfc_LatLon0.15_PT051H.grib2 2026-04-30 04:10 567K
20260430T00Z_MSC_GDPS_SoilVolumetricIceContent_Sfc_LatLon0.15_PT051H.grib2 2026-04-30 04:10 203K
20260430T00Z_MSC_GDPS_SoilVolumetricWaterContent_DBS-0to10cm_LatLon0.15_PT051H.grib2 2026-04-30 04:10 586K
20260430T00Z_MSC_GDPS_SoilVolumetricWaterContent_DBS-0to1cm_LatLon0.15_PT051H.grib2 2026-04-30 04:10 653K
20260430T00Z_MSC_GDPS_SpecificHumidity_AGL-120m_LatLon0.15_PT051H.grib2 2026-04-30 04:10 1.1M
20260430T00Z_MSC_GDPS_SpecificHumidity_AGL-2m_LatLon0.15_PT051H.grib2 2026-04-30 04:10 1.2M
20260430T00Z_MSC_GDPS_SpecificHumidity_AGL-40m_LatLon0.15_PT051H.grib2 2026-04-30 04:10 1.1M
20260430T00Z_MSC_GDPS_SpecificHumidity_AGL-80m_LatLon0.15_PT051H.grib2 2026-04-30 04:10 1.1M
20260430T00Z_MSC_GDPS_SpecificHumidity_IsbL-0001_LatLon0.15_PT051H.grib2 2026-04-30 04:10 1.3M
20260430T00Z_MSC_GDPS_SpecificHumidity_IsbL-0005_LatLon0.15_PT051H.grib2 2026-04-30 04:10 1.2M
20260430T00Z_MSC_GDPS_SpecificHumidity_IsbL-0010_LatLon0.15_PT051H.grib2 2026-04-30 04:10 1.3M
20260430T00Z_MSC_GDPS_SpecificHumidity_IsbL-0020_LatLon0.15_PT051H.grib2 2026-04-30 04:10 1.4M
20260430T00Z_MSC_GDPS_SpecificHumidity_IsbL-0030_LatLon0.15_PT051H.grib2 2026-04-30 04:10 1.3M
20260430T00Z_MSC_GDPS_SpecificHumidity_IsbL-0050_LatLon0.15_PT051H.grib2 2026-04-30 04:10 1.3M
20260430T00Z_MSC_GDPS_SpecificHumidity_IsbL-0100_LatLon0.15_PT051H.grib2 2026-04-30 04:10 1.4M
20260430T00Z_MSC_GDPS_SpecificHumidity_IsbL-0150_LatLon0.15_PT051H.grib2 2026-04-30 04:10 1.3M
20260430T00Z_MSC_GDPS_SpecificHumidity_IsbL-0175_LatLon0.15_PT051H.grib2 2026-04-30 04:10 1.2M
20260430T00Z_MSC_GDPS_SpecificHumidity_IsbL-0200_LatLon0.15_PT051H.grib2 2026-04-30 04:10 1.3M
20260430T00Z_MSC_GDPS_SpecificHumidity_IsbL-0225_LatLon0.15_PT051H.grib2 2026-04-30 04:10 1.3M
20260430T00Z_MSC_GDPS_SpecificHumidity_IsbL-0250_LatLon0.15_PT051H.grib2 2026-04-30 04:10 1.4M
20260430T00Z_MSC_GDPS_SpecificHumidity_IsbL-0275_LatLon0.15_PT051H.grib2 2026-04-30 04:10 1.3M
20260430T00Z_MSC_GDPS_SpecificHumidity_IsbL-0300_LatLon0.15_PT051H.grib2 2026-04-30 04:10 1.2M
20260430T00Z_MSC_GDPS_SpecificHumidity_IsbL-0350_LatLon0.15_PT051H.grib2 2026-04-30 04:10 1.2M
20260430T00Z_MSC_GDPS_SpecificHumidity_IsbL-0400_LatLon0.15_PT051H.grib2 2026-04-30 04:10 1.4M
20260430T00Z_MSC_GDPS_SpecificHumidity_IsbL-0450_LatLon0.15_PT051H.grib2 2026-04-30 04:10 1.6M
20260430T00Z_MSC_GDPS_SpecificHumidity_IsbL-0500_LatLon0.15_PT051H.grib2 2026-04-30 04:10 1.4M
20260430T00Z_MSC_GDPS_SpecificHumidity_IsbL-0550_LatLon0.15_PT051H.grib2 2026-04-30 04:10 1.6M
20260430T00Z_MSC_GDPS_SpecificHumidity_IsbL-0600_LatLon0.15_PT051H.grib2 2026-04-30 04:10 1.7M
20260430T00Z_MSC_GDPS_SpecificHumidity_IsbL-0650_LatLon0.15_PT051H.grib2 2026-04-30 04:10 1.5M
20260430T00Z_MSC_GDPS_SpecificHumidity_IsbL-0700_LatLon0.15_PT051H.grib2 2026-04-30 04:10 1.6M
20260430T00Z_MSC_GDPS_SpecificHumidity_IsbL-0750_LatLon0.15_PT051H.grib2 2026-04-30 04:10 1.7M
20260430T00Z_MSC_GDPS_SpecificHumidity_IsbL-0800_LatLon0.15_PT051H.grib2 2026-04-30 04:10 1.8M
20260430T00Z_MSC_GDPS_SpecificHumidity_IsbL-0850_LatLon0.15_PT051H.grib2 2026-04-30 04:10 1.9M
20260430T00Z_MSC_GDPS_SpecificHumidity_IsbL-0875_LatLon0.15_PT051H.grib2 2026-04-30 04:10 1.9M
20260430T00Z_MSC_GDPS_SpecificHumidity_IsbL-0900_LatLon0.15_PT051H.grib2 2026-04-30 04:10 1.9M
20260430T00Z_MSC_GDPS_SpecificHumidity_IsbL-0925_LatLon0.15_PT051H.grib2 2026-04-30 04:10 1.9M
20260430T00Z_MSC_GDPS_SpecificHumidity_IsbL-0950_LatLon0.15_PT051H.grib2 2026-04-30 04:10 1.5M
20260430T00Z_MSC_GDPS_SpecificHumidity_IsbL-0970_LatLon0.15_PT051H.grib2 2026-04-30 04:10 1.5M
20260430T00Z_MSC_GDPS_SpecificHumidity_IsbL-0985_LatLon0.15_PT051H.grib2 2026-04-30 04:10 1.5M
20260430T00Z_MSC_GDPS_SpecificHumidity_IsbL-1000_LatLon0.15_PT051H.grib2 2026-04-30 04:10 1.5M
20260430T00Z_MSC_GDPS_SpecificHumidity_IsbL-1015_LatLon0.15_PT051H.grib2 2026-04-30 04:10 1.4M
20260430T00Z_MSC_GDPS_SpecificHumidity_Sfc_LatLon0.15_PT051H.grib2 2026-04-30 04:10 659K
20260430T00Z_MSC_GDPS_Thickness_IsbL-0850to0700_LatLon0.15_PT051H.grib2 2026-04-30 04:10 463K
20260430T00Z_MSC_GDPS_Thickness_IsbL-1000to0500_LatLon0.15_PT051H.grib2 2026-04-30 04:10 371K
20260430T00Z_MSC_GDPS_Thickness_IsbL-1000to0850_LatLon0.15_PT051H.grib2 2026-04-30 04:10 486K
20260430T00Z_MSC_GDPS_TotalCloudCover_Sfc_LatLon0.15_PT051H.grib2 2026-04-30 04:10 820K
20260430T00Z_MSC_GDPS_TotalTotalsIndex_Sfc_LatLon0.15_PT051H.grib2 2026-04-30 04:10 6.2M
20260430T00Z_MSC_GDPS_UVIndex-ClearSky_Sfc_LatLon0.15_PT051H.grib2 2026-04-30 04:50 1.0M
20260430T00Z_MSC_GDPS_UVIndex_Sfc_LatLon0.15_PT051H.grib2 2026-04-30 04:50 1.5M
20260430T00Z_MSC_GDPS_UpwardLongwaveRadiationFlux_NTAtm_LatLon0.15_PT051H.grib2 2026-04-30 04:10 1.0M
20260430T00Z_MSC_GDPS_VerticalVelocity_IsbL-0200_LatLon0.15_PT051H.grib2 2026-04-30 04:10 1.1M
20260430T00Z_MSC_GDPS_VerticalVelocity_IsbL-0250_LatLon0.15_PT051H.grib2 2026-04-30 04:10 1.0M
20260430T00Z_MSC_GDPS_VerticalVelocity_IsbL-0500_LatLon0.15_PT051H.grib2 2026-04-30 04:10 1.0M
20260430T00Z_MSC_GDPS_VerticalVelocity_IsbL-0600_LatLon0.15_PT051H.grib2 2026-04-30 04:10 1.1M
20260430T00Z_MSC_GDPS_VerticalVelocity_IsbL-0700_LatLon0.15_PT051H.grib2 2026-04-30 04:10 1.2M
20260430T00Z_MSC_GDPS_VerticalVelocity_IsbL-0850_LatLon0.15_PT051H.grib2 2026-04-30 04:10 1.3M
20260430T00Z_MSC_GDPS_WindChill_Sfc_LatLon0.15_PT051H.grib2 2026-04-30 04:10 5.3M
20260430T00Z_MSC_GDPS_WindDir_AGL-10m_LatLon0.15_PT051H.grib2 2026-04-30 04:10 1.3M
20260430T00Z_MSC_GDPS_WindDir_AGL-120m_LatLon0.15_PT051H.grib2 2026-04-30 04:10 1.3M
20260430T00Z_MSC_GDPS_WindDir_AGL-40m_LatLon0.15_PT051H.grib2 2026-04-30 04:10 1.4M
20260430T00Z_MSC_GDPS_WindDir_AGL-80m_LatLon0.15_PT051H.grib2 2026-04-30 04:10 1.4M
20260430T00Z_MSC_GDPS_WindDir_IsbL-0001_LatLon0.15_PT051H.grib2 2026-04-30 04:10 710K
20260430T00Z_MSC_GDPS_WindDir_IsbL-0005_LatLon0.15_PT051H.grib2 2026-04-30 04:10 800K
20260430T00Z_MSC_GDPS_WindDir_IsbL-0010_LatLon0.15_PT051H.grib2 2026-04-30 04:10 844K
20260430T00Z_MSC_GDPS_WindDir_IsbL-0020_LatLon0.15_PT051H.grib2 2026-04-30 04:10 958K
20260430T00Z_MSC_GDPS_WindDir_IsbL-0030_LatLon0.15_PT051H.grib2 2026-04-30 04:10 935K
20260430T00Z_MSC_GDPS_WindDir_IsbL-0050_LatLon0.15_PT051H.grib2 2026-04-30 04:10 952K
20260430T00Z_MSC_GDPS_WindDir_IsbL-0100_LatLon0.15_PT051H.grib2 2026-04-30 04:10 1.0M
20260430T00Z_MSC_GDPS_WindDir_IsbL-0150_LatLon0.15_PT051H.grib2 2026-04-30 04:10 1.0M
20260430T00Z_MSC_GDPS_WindDir_IsbL-0175_LatLon0.15_PT051H.grib2 2026-04-30 04:10 1.0M
20260430T00Z_MSC_GDPS_WindDir_IsbL-0200_LatLon0.15_PT051H.grib2 2026-04-30 04:10 1.1M
20260430T00Z_MSC_GDPS_WindDir_IsbL-0225_LatLon0.15_PT051H.grib2 2026-04-30 04:10 1.1M
20260430T00Z_MSC_GDPS_WindDir_IsbL-0250_LatLon0.15_PT051H.grib2 2026-04-30 04:10 1.1M
20260430T00Z_MSC_GDPS_WindDir_IsbL-0275_LatLon0.15_PT051H.grib2 2026-04-30 04:10 1.2M
20260430T00Z_MSC_GDPS_WindDir_IsbL-0300_LatLon0.15_PT051H.grib2 2026-04-30 04:10 1.2M
20260430T00Z_MSC_GDPS_WindDir_IsbL-0350_LatLon0.15_PT051H.grib2 2026-04-30 04:10 1.2M
20260430T00Z_MSC_GDPS_WindDir_IsbL-0400_LatLon0.15_PT051H.grib2 2026-04-30 04:10 1.2M
20260430T00Z_MSC_GDPS_WindDir_IsbL-0450_LatLon0.15_PT051H.grib2 2026-04-30 04:10 1.3M
20260430T00Z_MSC_GDPS_WindDir_IsbL-0500_LatLon0.15_PT051H.grib2 2026-04-30 04:10 1.3M
20260430T00Z_MSC_GDPS_WindDir_IsbL-0550_LatLon0.15_PT051H.grib2 2026-04-30 04:10 1.4M
20260430T00Z_MSC_GDPS_WindDir_IsbL-0600_LatLon0.15_PT051H.grib2 2026-04-30 04:10 1.4M
20260430T00Z_MSC_GDPS_WindDir_IsbL-0650_LatLon0.15_PT051H.grib2 2026-04-30 04:10 1.5M
20260430T00Z_MSC_GDPS_WindDir_IsbL-0700_LatLon0.15_PT051H.grib2 2026-04-30 04:10 1.6M
20260430T00Z_MSC_GDPS_WindDir_IsbL-0750_LatLon0.15_PT051H.grib2 2026-04-30 04:10 1.7M
20260430T00Z_MSC_GDPS_WindDir_IsbL-0800_LatLon0.15_PT051H.grib2 2026-04-30 04:10 1.8M
20260430T00Z_MSC_GDPS_WindDir_IsbL-0850_LatLon0.15_PT051H.grib2 2026-04-30 04:10 1.9M
20260430T00Z_MSC_GDPS_WindDir_IsbL-0875_LatLon0.15_PT051H.grib2 2026-04-30 04:10 1.9M
20260430T00Z_MSC_GDPS_WindDir_IsbL-0900_LatLon0.15_PT051H.grib2 2026-04-30 04:10 2.0M
20260430T00Z_MSC_GDPS_WindDir_IsbL-0925_LatLon0.15_PT051H.grib2 2026-04-30 04:10 2.0M
20260430T00Z_MSC_GDPS_WindDir_IsbL-0950_LatLon0.15_PT051H.grib2 2026-04-30 04:10 2.0M
20260430T00Z_MSC_GDPS_WindDir_IsbL-0970_LatLon0.15_PT051H.grib2 2026-04-30 04:10 2.0M
20260430T00Z_MSC_GDPS_WindDir_IsbL-0985_LatLon0.15_PT051H.grib2 2026-04-30 04:10 2.0M
20260430T00Z_MSC_GDPS_WindDir_IsbL-1000_LatLon0.15_PT051H.grib2 2026-04-30 04:10 2.0M
20260430T00Z_MSC_GDPS_WindDir_IsbL-1015_LatLon0.15_PT051H.grib2 2026-04-30 04:10 2.0M
20260430T00Z_MSC_GDPS_WindGust-Max_AGL-10m_LatLon0.15_PT051H.grib2 2026-04-30 04:10 2.2M
20260430T00Z_MSC_GDPS_WindGust-Min_AGL-10m_LatLon0.15_PT051H.grib2 2026-04-30 04:10 2.2M
20260430T00Z_MSC_GDPS_WindGust_AGL-10m_LatLon0.15_PT051H.grib2 2026-04-30 04:10 2.2M
20260430T00Z_MSC_GDPS_WindSpeed_AGL-10m_LatLon0.15_PT051H.grib2 2026-04-30 04:10 1.1M
20260430T00Z_MSC_GDPS_WindSpeed_AGL-120m_LatLon0.15_PT051H.grib2 2026-04-30 04:10 1.2M
20260430T00Z_MSC_GDPS_WindSpeed_AGL-40m_LatLon0.15_PT051H.grib2 2026-04-30 04:10 1.2M
20260430T00Z_MSC_GDPS_WindSpeed_AGL-80m_LatLon0.15_PT051H.grib2 2026-04-30 04:10 1.2M
20260430T00Z_MSC_GDPS_WindSpeed_IsbL-0001_LatLon0.15_PT051H.grib2 2026-04-30 04:10 641K
20260430T00Z_MSC_GDPS_WindSpeed_IsbL-0005_LatLon0.15_PT051H.grib2 2026-04-30 04:10 693K
20260430T00Z_MSC_GDPS_WindSpeed_IsbL-0010_LatLon0.15_PT051H.grib2 2026-04-30 04:10 627K
20260430T00Z_MSC_GDPS_WindSpeed_IsbL-0020_LatLon0.15_PT051H.grib2 2026-04-30 04:10 859K
20260430T00Z_MSC_GDPS_WindSpeed_IsbL-0030_LatLon0.15_PT051H.grib2 2026-04-30 04:10 860K
20260430T00Z_MSC_GDPS_WindSpeed_IsbL-0050_LatLon0.15_PT051H.grib2 2026-04-30 04:10 902K
20260430T00Z_MSC_GDPS_WindSpeed_IsbL-0100_LatLon0.15_PT051H.grib2 2026-04-30 04:10 1.1M
20260430T00Z_MSC_GDPS_WindSpeed_IsbL-0150_LatLon0.15_PT051H.grib2 2026-04-30 04:10 941K
20260430T00Z_MSC_GDPS_WindSpeed_IsbL-0175_LatLon0.15_PT051H.grib2 2026-04-30 04:10 1.0M
20260430T00Z_MSC_GDPS_WindSpeed_IsbL-0200_LatLon0.15_PT051H.grib2 2026-04-30 04:10 1.1M
20260430T00Z_MSC_GDPS_WindSpeed_IsbL-0225_LatLon0.15_PT051H.grib2 2026-04-30 04:10 1.1M
20260430T00Z_MSC_GDPS_WindSpeed_IsbL-0250_LatLon0.15_PT051H.grib2 2026-04-30 04:10 1.1M
20260430T00Z_MSC_GDPS_WindSpeed_IsbL-0275_LatLon0.15_PT051H.grib2 2026-04-30 04:10 1.1M
20260430T00Z_MSC_GDPS_WindSpeed_IsbL-0300_LatLon0.15_PT051H.grib2 2026-04-30 04:10 1.1M
20260430T00Z_MSC_GDPS_WindSpeed_IsbL-0350_LatLon0.15_PT051H.grib2 2026-04-30 04:10 1.1M
20260430T00Z_MSC_GDPS_WindSpeed_IsbL-0400_LatLon0.15_PT051H.grib2 2026-04-30 04:10 1.1M
20260430T00Z_MSC_GDPS_WindSpeed_IsbL-0450_LatLon0.15_PT051H.grib2 2026-04-30 04:10 1.1M
20260430T00Z_MSC_GDPS_WindSpeed_IsbL-0500_LatLon0.15_PT051H.grib2 2026-04-30 04:10 1.1M
20260430T00Z_MSC_GDPS_WindSpeed_IsbL-0550_LatLon0.15_PT051H.grib2 2026-04-30 04:10 1.1M
20260430T00Z_MSC_GDPS_WindSpeed_IsbL-0600_LatLon0.15_PT051H.grib2 2026-04-30 04:10 1.4M
20260430T00Z_MSC_GDPS_WindSpeed_IsbL-0650_LatLon0.15_PT051H.grib2 2026-04-30 04:10 1.4M
20260430T00Z_MSC_GDPS_WindSpeed_IsbL-0700_LatLon0.15_PT051H.grib2 2026-04-30 04:10 1.5M
20260430T00Z_MSC_GDPS_WindSpeed_IsbL-0750_LatLon0.15_PT051H.grib2 2026-04-30 04:10 1.5M
20260430T00Z_MSC_GDPS_WindSpeed_IsbL-0800_LatLon0.15_PT051H.grib2 2026-04-30 04:10 1.6M
20260430T00Z_MSC_GDPS_WindSpeed_IsbL-0850_LatLon0.15_PT051H.grib2 2026-04-30 04:10 1.7M
20260430T00Z_MSC_GDPS_WindSpeed_IsbL-0875_LatLon0.15_PT051H.grib2 2026-04-30 04:10 1.8M
20260430T00Z_MSC_GDPS_WindSpeed_IsbL-0900_LatLon0.15_PT051H.grib2 2026-04-30 04:10 1.8M
20260430T00Z_MSC_GDPS_WindSpeed_IsbL-0925_LatLon0.15_PT051H.grib2 2026-04-30 04:10 1.8M
20260430T00Z_MSC_GDPS_WindSpeed_IsbL-0950_LatLon0.15_PT051H.grib2 2026-04-30 04:10 1.9M
20260430T00Z_MSC_GDPS_WindSpeed_IsbL-0970_LatLon0.15_PT051H.grib2 2026-04-30 04:10 1.9M
20260430T00Z_MSC_GDPS_WindSpeed_IsbL-0985_LatLon0.15_PT051H.grib2 2026-04-30 04:10 1.9M
20260430T00Z_MSC_GDPS_WindSpeed_IsbL-1000_LatLon0.15_PT051H.grib2 2026-04-30 04:10 1.8M
20260430T00Z_MSC_GDPS_WindSpeed_IsbL-1015_LatLon0.15_PT051H.grib2 2026-04-30 04:10 1.8M
20260430T00Z_MSC_GDPS_WindU_AGL-10m_LatLon0.15_PT051H.grib2 2026-04-30 04:10 1.3M
20260430T00Z_MSC_GDPS_WindU_AGL-120m_LatLon0.15_PT051H.grib2 2026-04-30 04:10 1.0M
20260430T00Z_MSC_GDPS_WindU_AGL-40m_LatLon0.15_PT051H.grib2 2026-04-30 04:10 970K
20260430T00Z_MSC_GDPS_WindU_AGL-80m_LatLon0.15_PT051H.grib2 2026-04-30 04:10 1.0M
20260430T00Z_MSC_GDPS_WindU_IsbL-0001_LatLon0.15_PT051H.grib2 2026-04-30 04:10 496K
20260430T00Z_MSC_GDPS_WindU_IsbL-0005_LatLon0.15_PT051H.grib2 2026-04-30 04:10 691K
20260430T00Z_MSC_GDPS_WindU_IsbL-0010_LatLon0.15_PT051H.grib2 2026-04-30 04:10 700K
20260430T00Z_MSC_GDPS_WindU_IsbL-0020_LatLon0.15_PT051H.grib2 2026-04-30 04:10 731K
20260430T00Z_MSC_GDPS_WindU_IsbL-0030_LatLon0.15_PT051H.grib2 2026-04-30 04:10 736K
20260430T00Z_MSC_GDPS_WindU_IsbL-0050_LatLon0.15_PT051H.grib2 2026-04-30 04:10 695K
20260430T00Z_MSC_GDPS_WindU_IsbL-0100_LatLon0.15_PT051H.grib2 2026-04-30 04:10 920K
20260430T00Z_MSC_GDPS_WindU_IsbL-0150_LatLon0.15_PT051H.grib2 2026-04-30 04:10 1.0M
20260430T00Z_MSC_GDPS_WindU_IsbL-0175_LatLon0.15_PT051H.grib2 2026-04-30 04:10 1.0M
20260430T00Z_MSC_GDPS_WindU_IsbL-0200_LatLon0.15_PT051H.grib2 2026-04-30 04:10 844K
20260430T00Z_MSC_GDPS_WindU_IsbL-0225_LatLon0.15_PT051H.grib2 2026-04-30 04:10 852K
20260430T00Z_MSC_GDPS_WindU_IsbL-0250_LatLon0.15_PT051H.grib2 2026-04-30 04:10 851K
20260430T00Z_MSC_GDPS_WindU_IsbL-0275_LatLon0.15_PT051H.grib2 2026-04-30 04:10 877K
20260430T00Z_MSC_GDPS_WindU_IsbL-0300_LatLon0.15_PT051H.grib2 2026-04-30 04:10 867K
20260430T00Z_MSC_GDPS_WindU_IsbL-0350_LatLon0.15_PT051H.grib2 2026-04-30 04:10 880K
20260430T00Z_MSC_GDPS_WindU_IsbL-0400_LatLon0.15_PT051H.grib2 2026-04-30 04:10 1.1M
20260430T00Z_MSC_GDPS_WindU_IsbL-0450_LatLon0.15_PT051H.grib2 2026-04-30 04:10 1.1M
20260430T00Z_MSC_GDPS_WindU_IsbL-0500_LatLon0.15_PT051H.grib2 2026-04-30 04:10 1.1M
20260430T00Z_MSC_GDPS_WindU_IsbL-0550_LatLon0.15_PT051H.grib2 2026-04-30 04:10 1.1M
20260430T00Z_MSC_GDPS_WindU_IsbL-0600_LatLon0.15_PT051H.grib2 2026-04-30 04:10 1.1M
20260430T00Z_MSC_GDPS_WindU_IsbL-0650_LatLon0.15_PT051H.grib2 2026-04-30 04:10 1.2M
20260430T00Z_MSC_GDPS_WindU_IsbL-0700_LatLon0.15_PT051H.grib2 2026-04-30 04:10 1.2M
20260430T00Z_MSC_GDPS_WindU_IsbL-0750_LatLon0.15_PT051H.grib2 2026-04-30 04:10 1.3M
20260430T00Z_MSC_GDPS_WindU_IsbL-0800_LatLon0.15_PT051H.grib2 2026-04-30 04:10 1.3M
20260430T00Z_MSC_GDPS_WindU_IsbL-0850_LatLon0.15_PT051H.grib2 2026-04-30 04:10 1.4M
20260430T00Z_MSC_GDPS_WindU_IsbL-0875_LatLon0.15_PT051H.grib2 2026-04-30 04:10 1.5M
20260430T00Z_MSC_GDPS_WindU_IsbL-0900_LatLon0.15_PT051H.grib2 2026-04-30 04:10 1.5M
20260430T00Z_MSC_GDPS_WindU_IsbL-0925_LatLon0.15_PT051H.grib2 2026-04-30 04:10 1.5M
20260430T00Z_MSC_GDPS_WindU_IsbL-0950_LatLon0.15_PT051H.grib2 2026-04-30 04:10 1.4M
20260430T00Z_MSC_GDPS_WindU_IsbL-0970_LatLon0.15_PT051H.grib2 2026-04-30 04:10 1.4M
20260430T00Z_MSC_GDPS_WindU_IsbL-0985_LatLon0.15_PT051H.grib2 2026-04-30 04:10 1.4M
20260430T00Z_MSC_GDPS_WindU_IsbL-1000_LatLon0.15_PT051H.grib2 2026-04-30 04:10 1.4M
20260430T00Z_MSC_GDPS_WindU_IsbL-1015_LatLon0.15_PT051H.grib2 2026-04-30 04:10 1.3M
20260430T00Z_MSC_GDPS_WindV_AGL-10m_LatLon0.15_PT051H.grib2 2026-04-30 04:10 1.3M
20260430T00Z_MSC_GDPS_WindV_AGL-120m_LatLon0.15_PT051H.grib2 2026-04-30 04:10 1.0M
20260430T00Z_MSC_GDPS_WindV_AGL-40m_LatLon0.15_PT051H.grib2 2026-04-30 04:10 968K
20260430T00Z_MSC_GDPS_WindV_AGL-80m_LatLon0.15_PT051H.grib2 2026-04-30 04:10 1.0M
20260430T00Z_MSC_GDPS_WindV_IsbL-0001_LatLon0.15_PT051H.grib2 2026-04-30 04:10 777K
20260430T00Z_MSC_GDPS_WindV_IsbL-0005_LatLon0.15_PT051H.grib2 2026-04-30 04:10 765K
20260430T00Z_MSC_GDPS_WindV_IsbL-0010_LatLon0.15_PT051H.grib2 2026-04-30 04:10 795K
20260430T00Z_MSC_GDPS_WindV_IsbL-0020_LatLon0.15_PT051H.grib2 2026-04-30 04:10 850K
20260430T00Z_MSC_GDPS_WindV_IsbL-0030_LatLon0.15_PT051H.grib2 2026-04-30 04:10 850K
20260430T00Z_MSC_GDPS_WindV_IsbL-0050_LatLon0.15_PT051H.grib2 2026-04-30 04:10 900K
20260430T00Z_MSC_GDPS_WindV_IsbL-0100_LatLon0.15_PT051H.grib2 2026-04-30 04:10 1.1M
20260430T00Z_MSC_GDPS_WindV_IsbL-0150_LatLon0.15_PT051H.grib2 2026-04-30 04:10 1.0M
20260430T00Z_MSC_GDPS_WindV_IsbL-0175_LatLon0.15_PT051H.grib2 2026-04-30 04:10 1.0M
20260430T00Z_MSC_GDPS_WindV_IsbL-0200_LatLon0.15_PT051H.grib2 2026-04-30 04:10 842K
20260430T00Z_MSC_GDPS_WindV_IsbL-0225_LatLon0.15_PT051H.grib2 2026-04-30 04:10 848K
20260430T00Z_MSC_GDPS_WindV_IsbL-0250_LatLon0.15_PT051H.grib2 2026-04-30 04:10 845K
20260430T00Z_MSC_GDPS_WindV_IsbL-0275_LatLon0.15_PT051H.grib2 2026-04-30 04:10 870K
20260430T00Z_MSC_GDPS_WindV_IsbL-0300_LatLon0.15_PT051H.grib2 2026-04-30 04:10 857K
20260430T00Z_MSC_GDPS_WindV_IsbL-0350_LatLon0.15_PT051H.grib2 2026-04-30 04:10 870K
20260430T00Z_MSC_GDPS_WindV_IsbL-0400_LatLon0.15_PT051H.grib2 2026-04-30 04:10 873K
20260430T00Z_MSC_GDPS_WindV_IsbL-0450_LatLon0.15_PT051H.grib2 2026-04-30 04:10 1.1M
20260430T00Z_MSC_GDPS_WindV_IsbL-0500_LatLon0.15_PT051H.grib2 2026-04-30 04:10 1.1M
20260430T00Z_MSC_GDPS_WindV_IsbL-0550_LatLon0.15_PT051H.grib2 2026-04-30 04:10 1.1M
20260430T00Z_MSC_GDPS_WindV_IsbL-0600_LatLon0.15_PT051H.grib2 2026-04-30 04:10 1.1M
20260430T00Z_MSC_GDPS_WindV_IsbL-0650_LatLon0.15_PT051H.grib2 2026-04-30 04:10 1.2M
20260430T00Z_MSC_GDPS_WindV_IsbL-0700_LatLon0.15_PT051H.grib2 2026-04-30 04:10 1.2M
20260430T00Z_MSC_GDPS_WindV_IsbL-0750_LatLon0.15_PT051H.grib2 2026-04-30 04:10 1.3M
20260430T00Z_MSC_GDPS_WindV_IsbL-0800_LatLon0.15_PT051H.grib2 2026-04-30 04:10 1.3M
20260430T00Z_MSC_GDPS_WindV_IsbL-0850_LatLon0.15_PT051H.grib2 2026-04-30 04:10 1.4M
20260430T00Z_MSC_GDPS_WindV_IsbL-0875_LatLon0.15_PT051H.grib2 2026-04-30 04:10 1.4M
20260430T00Z_MSC_GDPS_WindV_IsbL-0900_LatLon0.15_PT051H.grib2 2026-04-30 04:10 1.5M
20260430T00Z_MSC_GDPS_WindV_IsbL-0925_LatLon0.15_PT051H.grib2 2026-04-30 04:10 1.4M
20260430T00Z_MSC_GDPS_WindV_IsbL-0950_LatLon0.15_PT051H.grib2 2026-04-30 04:10 1.4M
20260430T00Z_MSC_GDPS_WindV_IsbL-0970_LatLon0.15_PT051H.grib2 2026-04-30 04:10 1.4M
20260430T00Z_MSC_GDPS_WindV_IsbL-0985_LatLon0.15_PT051H.grib2 2026-04-30 04:10 1.4M
20260430T00Z_MSC_GDPS_WindV_IsbL-1000_LatLon0.15_PT051H.grib2 2026-04-30 04:10 1.4M
20260430T00Z_MSC_GDPS_WindV_IsbL-1015_LatLon0.15_PT051H.grib2 2026-04-30 04:10 1.3M